FW2084 Weather Reports


time (UTC)temp
F
wind
direction
speed
knots
gust
knots
rain 1hr
in
rain 24hr
in
rain mn
in
humidity
%
barometer
mb
20260506035423 48 76 8.7 15.6 0.00 0.00 0.00 85 1012.1
20260506035339 48 72 7.8 15.6 0.00 0.00 0.00 85 1012.1
20260506034923 48 96 11.3 15.6 0.00 0.00 0.00 85 1012.2
20260506034841 48 78 7.0 15.6 0.00 0.00 0.00 85 1012.0
20260506034428 48 111 5.2 14.8 0.00 0.00 0.00 86 1012.1
20260506034339 48 87 3.5 14.8 0.00 0.00 0.00 86 1012.0
20260506033925 48 67 8.7 14.8 0.00 0.00 0.00 86 1012.0
20260506033839 48 60 7.0 14.8 0.00 0.00 0.00 86 1012.1
20260506033751 48 82 4.3 20.9 0.00 0.00 0.00 86 1011.7
20260506033621 48 70 3.5 20.9 0.00 0.00 0.00 86 1011.9
20260506033339 48 68 4.3 20.9 0.00 0.00 0.00 86 1012.0
20260506032839 48 94 5.2 20.9 0.00 0.00 0.00 86 1011.7
20260506032805 48 32 3.5 16.5 0.00 0.00 0.00 86 1011.6
20260506032340 48 55 7.0 16.5 0.00 0.00 0.00 86 1011.6
20260506032213 48 99 10.4 16.5 0.00 0.00 0.00 86 1011.2
20260506032101 48 69 6.1 16.5 0.00 0.00 0.00 86 1011.5
20260506032034 48 47 7.0 16.5 0.00 0.00 0.00 86 1011.5
20260506031338 48 57 9.6 17.4 0.00 0.00 0.00 86 1011.1
20260506031232 48 70 5.2 23.5 0.00 0.00 0.00 86 1010.8
20260506031116 48 96 10.4 23.5 0.00 0.00 0.00 86 1010.8
20260506030425 48 68 7.8 23.5 0.00 0.00 0.00 87 1010.8
20260506030345 48 66 7.8 23.5 0.00 0.00 0.00 87 1010.8
20260506030327 48 87 4.3 18.2 0.00 0.00 0.00 88 1010.8
20260506030142 48 57 9.6 14.8 0.00 0.00 0.00 87 1011.0
20260506025423 48 54 6.1 19.1 0.00 0.00 0.00 88 1010.9
20260506025338 48 66 5.2 19.1 0.00 0.00 0.00 87 1011.0
20260506024924 48 66 7.0 19.1 0.00 0.00 0.00 87 1011.1
20260506024839 48 80 8.7 19.1 0.00 0.00 0.00 87 1011.1
20260506024423 48 80 4.3 16.5 0.00 0.00 0.00 87 1010.9
20260506024339 48 83 8.7 16.5 0.00 0.00 0.00 86 1011.0
20260506024313 48 87 5.2 13.0 0.00 0.00 0.00 86 1011.1
20260506023840 48 66 5.2 14.8 0.00 0.00 0.00 86 1010.9
20260506023425 48 26 5.2 15.6 0.00 0.00 0.00 85 1010.9
20260506023405 48 92 7.8 22.6 0.00 0.00 0.00 85 1010.8
20260506023348 48 78 1.7 16.5 0.00 0.00 0.00 85 1011.0
20260506023339 48 59 7.8 15.6 0.00 0.00 0.00 85 1010.9
20260506022926 48 89 5.2 22.6 0.00 0.00 0.00 85 1011.1
20260506022918 48 49 10.4 16.5 0.00 0.00 0.00 85 1011.0
20260506022855 48 66 9.6 22.6 0.00 0.00 0.00 85 1010.9
20260506022416 48 85 11.3 15.6 0.00 0.00 0.00 85 1010.9
20260506022411 48 57 8.7 16.5 0.00 0.00 0.00 85 1011.0
20260506022350 48 93 5.2 22.6 0.00 0.00 0.00 85 1011.0
20260506021928 48 91 11.3 16.5 0.00 0.00 0.00 85 1011.1
20260506021737 48 75 5.2 15.6 0.00 0.00 0.00 85 1010.8
20260506021315 48 74 5.2 16.5 0.00 0.00 0.00 85 1010.9
20260506020611 48 55 2.6 16.5 0.00 0.00 0.00 85 1010.8
20260506015924 48 40 8.7 14.8 0.00 0.00 0.00 85 1010.9
20260506015850 48 62 5.2 14.8 0.00 0.00 0.00 85 1010.8
20260506015423 48 28 8.7 15.6 0.00 0.00 0.00 85 1010.6
20260506015338 48 63 8.7 15.6 0.00 0.00 0.00 85 1010.6
20260506015240 48 33 8.7 15.6 0.00 0.00 0.00 85 1010.7
20260506015112 48 48 8.7 15.6 0.00 0.00 0.00 85 1010.6
20260506014424 48 89 2.6 13.9 0.00 0.00 0.00 85 1010.4
20260506014336 48 77 5.2 13.9 0.00 0.00 0.00 85 1010.4
20260506013922 49 59 5.2 15.6 0.00 0.00 0.00 85 1010.4
20260506013841 49 57 7.8 15.6 0.00 0.00 0.00 85 1010.2
20260506013422 49 96 4.3 17.4 0.00 0.00 0.00 85 1010.4
20260506013340 49 87 2.6 18.2 0.00 0.00 0.00 85 1010.2
20260506012925 49 73 9.6 18.2 0.00 0.00 0.00 85 1010.4
20260506012837 49 68 7.8 18.2 0.00 0.00 0.00 85 1010.1
20260506012422 49 49 10.4 18.2 0.00 0.00 0.00 85 1010.1
20260506012337 49 31 5.2 13.9 0.00 0.00 0.00 85 1010.3
20260506012226 49 70 5.2 14.8 0.00 0.00 0.00 84 1010.3
20260506012110 49 60 4.3 11.3 0.00 0.00 0.00 84 1010.4
20260506011418 49 56 7.8 16.5 0.00 0.00 0.00 84 1010.4
20260506011346 49 36 12.2 16.5 0.00 0.00 0.00 84 1009.9
20260506011334 49 19 3.5 16.5 0.00 0.00 0.00 84 1010.4
20260506010839 49 61 6.1 16.5 0.00 0.00 0.00 84 1009.9
20260506010408 49 66 10.4 15.6 0.00 0.00 0.00 84 1009.7
20260506010337 49 38 6.1 13.0 0.00 0.00 0.00 84 1009.7
20260506005908 49 64 7.0 14.8 0.00 0.00 0.00 84 1009.6
20260506005836 49 71 7.8 14.8 0.00 0.00 0.00 84 1009.6
20260506005825 49 52 5.2 14.8 0.00 0.00 0.00 84 1009.6
20260506005603 49 56 10.4 14.8 0.00 0.00 0.00 84 1009.6
20260506004909 49 69 8.7 14.8 0.00 0.00 0.00 83 1009.4
20260506004839 49 39 7.0 14.8 0.00 0.00 0.00 83 1009.4
20260506004408 49 69 13.0 14.8 0.00 0.00 0.00 83 1009.2
20260506004343 49 69 5.2 14.8 0.00 0.00 0.00 83 1009.3
20260506003906 50 45 8.7 14.8 0.00 0.00 0.00 82 1009.1
20260506003835 50 356 5.2 14.8 0.00 0.00 0.00 82 1009.1
20260506003405 50 16 2.6 14.8 0.00 0.00 0.00 82 1009.0
20260506003357 50 54 4.3 14.8 0.00 0.00 0.00 80 1009.1
20260506003347 50 69 4.3 15.6 0.00 0.00 0.00 80 1009.1
20260506003336 50 83 7.0 14.8 0.00 0.00 0.00 82 1009.0
20260506003121 50 58 8.7 14.8 0.00 0.00 0.00 80 1009.1
20260506002341 50 41 4.3 15.6 0.00 0.00 0.00 80 1009.1
20260506001905 50 62 7.8 17.4 0.00 0.00 0.00 79 1009.1
20260506001834 50 58 11.3 17.4 0.00 0.00 0.00 79 1009.1
20260506001405 51 77 4.3 17.4 0.00 0.00 0.00 78 1009.1
20260506001334 51 50 5.2 17.4 0.00 0.00 0.00 78 1009.1
20260506001154 51 40 9.6 17.4 0.00 0.00 0.00 78 1009.0
20260506001136 51 88 7.0 19.1 0.00 0.00 0.00 78 1008.9
20260506001024 51 69 8.7 18.2 0.00 0.00 0.00 78 1009.1
20260506001006 51 56 7.0 19.1 0.00 0.00 0.00 78 1009.1
20260506000541 51 38 10.4 19.1 0.00 0.00 0.00 78 1008.9
20260506000309 51 58 9.6 14.8 0.00 0.00 0.00 78 1008.8
20260506000114 51 56 17.4 18.2 0.00 0.00 0.00 77 1009.0
20260505235336 51 103 5.2 14.8 0.00 0.00 0.00 78 1008.8
20260505234905 51 40 4.3 14.8 0.00 0.00 0.00 78 1008.5
20260505234835 51 41 6.1 14.8 0.00 0.00 0.00 78 1008.5
20260505234404 51 55 6.1 14.8 0.00 0.00 0.00 78 1009.0
20260505234336 51 81 4.3 14.8 0.00 0.00 0.00 78 1009.0
20260505233905 51 52 9.6 16.5 0.00 0.00 0.00 78 1008.6
20260505233834 51 44 8.7 16.5 0.00 0.00 0.00 78 1008.6
20260505233720 51 51 7.8 15.6 0.00 0.00 0.00 78 1009.0
20260505233552 51 28 13.0 16.5 0.00 0.00 0.00 77 1009.1
20260505233535 51 15 3.5 16.5 0.00 0.00 0.00 78 1009.1
20260505232847 51 68 4.3 16.5 0.00 0.00 0.00 78 1009.3
20260505232836 51 77 12.2 15.6 0.00 0.00 0.00 78 1009.0
20260505232635 51 80 5.2 15.6 0.00 0.00 0.00 78 1009.3
20260505232245 52 47 5.2 16.5 0.00 0.00 0.00 78 1009.2
20260505232103 52 29 8.7 16.5 0.00 0.00 0.00 78 1009.2
20260505231405 52 70 6.1 16.5 0.00 0.00 0.00 78 1008.9
20260505231334 52 49 13.9 16.5 0.00 0.00 0.00 78 1008.9
20260505230910 52 108 6.1 14.8 0.00 0.00 0.00 78 1009.0
20260505230835 52 87 3.5 14.8 0.00 0.00 0.00 78 1009.0
20260505230808 52 58 6.1 17.4 0.00 0.00 0.00 78 1008.7
20260505230349 52 64 6.1 17.4 0.00 0.00 0.00 78 1008.7
20260505225907 52 59 9.6 17.4 0.00 0.00 0.00 78 1008.8
20260505225837 52 62 5.2 17.4 0.00 0.00 0.00 78 1008.8
20260505225405 52 40 4.3 13.9 0.00 0.00 0.00 79 1008.6
20260505225334 52 62 3.5 13.9 0.00 0.00 0.00 79 1008.6
20260505224910 52 71 8.7 14.8 0.00 0.00 0.00 78 1008.7
20260505224840 52 83 3.5 14.8 0.00 0.00 0.00 79 1008.7
20260505224414 52 51 6.1 21.7 0.00 0.00 0.00 78 1009.0
20260505224334 52 102 7.0 21.7 0.00 0.00 0.00 78 1009.0
20260505223903 52 73 4.3 21.7 0.00 0.00 0.00 79 1008.4
20260505223834 52 37 7.8 21.7 0.00 0.00 0.00 79 1008.4
20260505223754 52 74 11.3 20.0 0.00 0.00 0.00 78 1008.4
20260505223339 52 77 6.1 20.0 0.00 0.00 0.00 79 1008.4
20260505223247 52 32 8.7 20.0 0.00 0.00 0.00 79 1008.4
20260505222843 52 60 13.0 20.0 0.00 0.00 0.00 79 1008.4
20260505222402 52 51 7.8 16.5 0.00 0.00 0.00 78 1008.5
20260505222340 52 51 7.0 16.5 0.00 0.00 0.00 79 1008.5
20260505222107 53 23 7.8 16.5 0.00 0.00 0.00 78 1008.5
20260505222055 53 22 7.8 13.0 0.00 0.00 0.00 78 1008.3
20260505222051 53 71 5.2 13.0 0.00 0.00 0.00 79 1008.3
20260505222000 52 89 6.1 16.5 0.00 0.00 0.00 79 1008.1
20260505221943 52 58 15.6 16.5 0.00 0.00 0.00 78 1008.1
20260505221514 53 58 7.0 16.5 0.00 0.00 0.00 78 1008.5
20260505220357 53 63 3.5 12.2 0.00 0.00 0.00 78 1007.8
20260505220338 53 111 4.3 16.5 0.00 0.00 0.00 79 1007.8
20260505220235 53 83 3.5 16.5 0.00 0.00 0.00 79 1007.8
20260505215837 53 89 3.5 16.5 0.00 0.00 0.00 79 1007.8
20260505215358 53 69 4.3 19.1 0.00 0.00 0.00 79 1007.6
20260505215336 53 45 13.0 19.1 0.00 0.00 0.00 79 1007.6
20260505215234 53 53 7.8 19.1 0.00 0.00 0.00 79 1007.9
20260505214837 53 95 3.5 19.1 0.00 0.00 0.00 79 1007.9
20260505214747 53 87 7.0 26.1 0.00 0.00 0.00 79 1007.9
20260505214338 53 77 4.3 26.1 0.00 0.00 0.00 79 1007.9
20260505214015 53 60 11.3 22.6 0.00 0.00 0.00 79 1008.2
20260505214008 53 51 6.1 18.2 0.00 0.00 0.00 79 1007.9
20260505213907 53 40 7.0 26.1 0.00 0.00 0.00 79 1007.8
20260505213855 53 70 7.8 26.1 0.00 0.00 0.00 79 1007.8
20260505213612 53 71 6.1 22.6 0.00 0.00 0.00 79 1008.2
20260505213059 53 58 7.8 18.2 0.00 0.00 0.00 79 1007.9
20260505212344 53 54 4.3 18.2 0.00 0.00 0.00 79 1007.6
20260505212323 54 82 12.2 18.2 0.00 0.00 0.00 78 1007.6
20260505212225 54 54 7.0 17.4 0.00 0.00 0.00 79 1007.0
20260505211823 54 20 5.2 17.4 0.00 0.00 0.00 78 1007.0
20260505211344 54 37 5.2 17.4 0.00 0.00 0.00 79 1007.4
20260505211323 54 74 4.3 17.4 0.00 0.00 0.00 79 1007.4
20260505211203 54 70 8.7 22.6 0.00 0.00 0.00 79 1006.9
20260505211044 54 126 6.1 22.6 0.00 0.00 0.00 79 1006.9
20260505210344 54 69 6.1 22.6 0.00 0.00 0.00 79 1006.9
20260505210324 54 55 11.3 22.6 0.00 0.00 0.00 79 1006.9
20260505205844 54 91 9.6 16.5 0.00 0.00 0.00 79 1007.2
20260505205823 54 57 7.8 16.5 0.00 0.00 0.00 80 1007.2
20260505205410 54 33 7.8 19.1 0.00 0.00 0.00 80 1007.2
20260505205323 54 68 9.6 19.1 0.00 0.00 0.00 80 1007.2
20260505204843 54 41 3.5 19.1 0.00 0.00 0.00 80 1007.4
20260505204823 54 54 4.3 19.1 0.00 0.00 0.00 80 1007.4
20260505204345 54 80 5.2 22.6 0.00 0.00 0.00 80 1007.4
20260505204324 54 110 4.3 22.6 0.00 0.00 0.00 81 1007.4
20260505203843 53 45 11.3 22.6 0.00 0.00 0.00 81 1007.3
20260505203825 53 40 5.2 22.6 0.00 0.00 0.00 82 1007.3
20260505203345 54 72 8.7 11.3 0.00 0.00 0.00 82 1007.5
20260505203323 54 108 2.6 18.2 0.00 0.00 0.00 83 1007.5
20260505203046 54 28 11.3 22.6 0.00 0.00 0.00 84 1007.2
20260505202950 53 53 3.5 18.2 0.00 0.00 0.00 83 1008.0
20260505202938 53 35 3.5 18.2 0.00 0.00 0.00 83 1008.0
20260505202638 53 73 7.0 17.4 0.00 0.00 0.00 84 1007.8
20260505202625 53 73 9.6 18.2 0.00 0.00 0.00 84 1007.6
20260505202513 53 31 7.0 18.2 0.00 0.00 0.00 83 1007.6
20260505202502 53 42 13.0 18.2 0.00 0.00 0.00 83 1007.6
20260505202017 53 70 7.0 18.2 0.00 0.00 0.00 84 1007.4
20260505201605 53 101 7.0 17.4 0.00 0.00 0.00 84 1007.6
20260505201000 53 70 6.1 18.2 0.00 0.00 0.00 84 1007.0
20260505200925 53 74 5.2 17.4 0.00 0.00 0.00 84 1007.3
20260505200911 53 62 5.2 17.4 0.00 0.00 0.00 84 1007.3
20260505200459 53 114 3.5 22.6 0.00 0.00 0.00 84 1007.1
20260505200045 54 54 8.7 22.6 0.00 0.00 0.00 84 1007.2
20260505195342 54 60 10.4 22.6 0.00 0.00 0.00 84 1007.0
20260505195322 54 74 22.6 22.6 0.00 0.00 0.00 84 1006.9
20260505194843 54 46 12.2 21.7 0.00 0.00 0.00 84 1006.6
20260505194823 54 34 1.7 21.7 0.00 0.00 0.00 84 1006.6
20260505194343 55 101 6.1 14.8 0.00 0.00 0.00 84 1007.0
20260505194322 55 61 5.2 14.8 0.00 0.00 0.00 84 1007.0
20260505193842 54 70 3.5 16.5 0.00 0.00 0.00 85 1007.1
20260505193824 54 89 3.5 16.5 0.00 0.00 0.00 85 1007.0
20260505193342 54 57 7.8 16.5 0.00 0.00 0.00 85 1007.0
20260505193322 54 50 11.3 16.5 0.00 0.00 0.00 85 1007.0
20260505192843 55 97 7.8 16.5 0.00 0.00 0.00 84 1007.1
20260505192824 55 51 4.3 16.5 0.00 0.00 0.00 84 1007.1
20260505192342 55 23 7.8 17.4 0.00 0.00 0.00 85 1007.0
20260505192323 55 60 7.0 17.4 0.00 0.00 0.00 84 1007.1
20260505191842 55 46 8.7 18.2 0.00 0.00 0.00 84 1006.9
20260505191824 55 6 5.2 18.2 0.00 0.00 0.00 84 1006.9
20260505191343 55 44 3.5 18.2 0.00 0.00 0.00 84 1006.7
20260505191323 55 57 7.0 18.2 0.00 0.00 0.00 84 1006.7
20260505191145 55 59 4.3 16.5 0.00 0.00 0.00 83 1006.4
20260505191020 55 40 5.2 18.2 0.00 0.00 0.00 84 1006.5
20260505191008 55 58 8.7 18.2 0.00 0.00 0.00 83 1006.4
20260505190539 55 75 9.6 16.5 0.00 0.00 0.00 83 1006.4
20260505185843 56 50 7.8 14.8 0.00 0.00 0.00 83 1006.7
20260505185822 56 20 9.6 14.8 0.00 0.00 0.00 83 1006.7
20260505185713 56 79 9.6 16.5 0.00 0.00 0.00 83 1006.3
20260505185546 56 83 7.8 16.5 0.00 0.00 0.00 83 1006.5
20260505185234 56 38 6.1 15.6 0.00 0.00 0.00 85 1006.7
20260505185052 56 39 7.8 16.5 0.00 0.00 0.00 84 1006.7
20260505185040 56 23 6.1 16.5 0.00 0.00 0.00 84 1006.5
20260505184321 56 5 12.2 17.4 0.00 0.00 0.00 84 1006.6
20260505183842 56 73 3.5 18.2 0.00 0.00 0.00 85 1006.6
20260505183822 56 52 3.5 18.2 0.00 0.00 0.00 85 1006.6
20260505183343 55 55 10.4 18.2 0.00 0.00 0.00 85 1006.4
20260505183321 55 44 5.2 18.2 0.00 0.00 0.00 85 1006.3
20260505182842 55 59 8.7 19.1 0.00 0.00 0.00 85 1006.4
20260505182827 55 55 4.3 19.1 0.00 0.00 0.00 85 1006.4
20260505182341 55 54 7.8 19.1 0.00 0.00 0.00 85 1006.4
20260505182322 55 61 7.0 19.1 0.00 0.00 0.00 85 1006.5
20260505181856 56 109 7.8 14.8 0.00 0.00 0.00 85 1006.2
20260505181843 56 51 7.8 14.8 0.00 0.00 0.00 85 1006.2
20260505181523 56 83 6.1 20.0 0.00 0.00 0.00 85 1006.1
20260505181512 56 50 10.4 24.3 0.00 0.00 0.00 86 1006.0
20260505181433 56 36 3.5 24.3 0.00 0.00 0.00 85 1006.1
20260505181418 56 84 6.1 24.3 0.00 0.00 0.00 85 1006.0
20260505181221 56 91 5.2 24.3 0.00 0.00 0.00 86 1005.9
20260505180542 56 43 13.0 20.0 0.00 0.00 0.00 85 1006.0
20260505180222 56 56 7.8 20.0 0.00 0.00 0.00 86 1006.0
20260505175821 56 62 7.8 20.0 0.00 0.00 0.00 86 1006.0
20260505175707 56 25 5.2 17.4 0.00 0.00 0.00 86 1005.9
20260505175541 56 63 11.3 17.4 0.00 0.00 0.00 85 1006.0
20260505174841 56 81 3.5 23.5 0.00 0.00 0.00 86 1006.0
20260505174826 56 53 7.0 23.5 0.00 0.00 0.00 86 1005.9
20260505174341 56 91 6.1 23.5 0.00 0.00 0.00 86 1006.0
20260505174320 56 44 13.9 23.5 0.00 0.00 0.00 85 1005.9
20260505174200 56 66 11.3 21.7 0.00 0.00 0.00 86 1005.9
20260505174044 56 68 7.8 21.7 0.00 0.00 0.00 86 1005.8
20260505173340 56 55 6.1 18.2 0.00 0.00 0.00 86 1005.9
20260505173320 56 85 7.0 18.2 0.00 0.00 0.00 86 1005.7
20260505172844 56 26 3.5 15.6 0.00 0.00 0.00 86 1005.6
20260505172820 56 91 4.3 15.6 0.00 0.00 0.00 87 1005.7
20260505172341 56 349 9.6 20.0 0.00 0.00 0.00 86 1005.7
20260505172323 56 2 3.5 20.0 0.00 0.00 0.00 87 1005.9
20260505172232 56 50 6.1 20.0 0.00 0.00 0.00 87 1005.7
20260505171823 56 32 9.6 20.0 0.00 0.00 0.00 86 1005.6
20260505171341 57 86 5.2 20.0 0.00 0.00 0.00 86 1005.3
20260505171320 57 116 3.5 20.0 0.00 0.00 0.00 86 1005.4
20260505170841 57 63 5.2 24.3 0.00 0.00 0.00 86 1005.2
20260505170821 57 37 12.2 24.3 0.00 0.00 0.00 86 1005.2
20260505170736 57 48 12.2 24.3 0.00 0.00 0.00 86 1005.0
20260505170554 57 40 13.0 24.3 0.00 0.00 0.00 86 1005.0
20260505170224 58 46 5.2 22.6 0.00 0.00 0.00 86 1005.0
20260505170043 58 45 7.8 20.0 0.00 0.00 0.00 86 1004.7
20260505165341 58 71 5.2 22.6 0.00 0.00 0.00 86 1004.8
20260505165322 58 55 12.2 22.6 0.00 0.00 0.00 86 1004.7
20260505165230 58 38 14.8 19.1 0.00 0.00 0.00 86 1005.0
20260505165041 58 52 10.4 22.6 0.00 0.00 0.00 86 1005.0
20260505164342 59 55 4.3 20.0 0.00 0.00 0.00 86 1004.8
20260505164322 59 66 5.2 20.0 0.00 0.00 0.00 86 1004.6
20260505163840 60 70 6.1 20.0 0.00 0.00 0.00 86 1004.5
20260505163820 60 62 5.2 20.0 0.00 0.00 0.00 86 1004.5
20260505163342 61 4 7.8 17.4 0.00 0.00 0.00 86 1004.0
20260505163322 61 3 7.8 17.4 0.00 0.00 0.00 85 1004.1
20260505162842 62 70 7.8 19.1 0.00 0.00 0.00 86 1004.0
20260505162821 62 60 7.0 19.1 0.00 0.00 0.00 86 1003.9
20260505162340 62 53 5.2 19.1 0.00 0.00 0.00 86 1003.8
20260505162321 62 22 8.7 19.1 0.00 0.00 0.00 86 1003.8
20260505162233 63 43 9.6 19.1 0.00 0.00 0.00 85 1003.6
20260505161824 63 56 13.0 19.1 0.00 0.00 0.00 85 1003.6
20260505161340 64 334 8.7 19.1 0.00 0.00 0.00 85 1003.2
20260505161322 64 10 10.4 19.1 0.00 0.00 0.00 85 1002.9
20260505161223 65 77 5.2 21.7 0.00 0.00 0.00 85 1002.7
20260505160821 65 62 6.1 21.7 0.00 0.00 0.00 85 1002.6
20260505160632 68 65 7.8 20.0 0.00 0.00 0.00 85 1002.7
20260505160515 66 36 10.4 21.7 0.00 0.00 0.00 85 1002.7
20260505160503 66 62 13.0 21.7 0.00 0.00 0.00 85 1002.6
20260505153338 70 49 5.2 10.4 0.00 0.00 0.00 85 1002.4
20260505153316 70 84 4.3 10.4 0.00 0.00 0.00 85 1002.4
20260505152845 71 62 4.3 10.4 0.00 0.00 0.00 84 1002.4
20260505152829 71 30 1.7 10.4 0.00 0.00 0.00 85 1002.3
20260505152335 71 101 4.3 10.4 0.00 0.00 0.00 83 1002.1
20260505152317 71 56 0.9 10.4 0.00 0.00 0.00 83 1002.1
20260505152229 71 105 3.5 8.7 0.00 0.00 0.00 83 1001.9
20260505151817 71 91 3.5 8.7 0.00 0.00 0.00 83 1001.9
20260505151342 71 35 5.2 9.6 0.00 0.00 0.00 83 1001.6
20260505151317 71 87 3.5 9.6 0.00 0.00 0.00 84 1001.6
20260505150840 71 113 5.2 9.6 0.00 0.00 0.00 83 1001.7
20260505150816 71 82 8.7 8.7 0.00 0.00 0.00 83 1001.6
20260505150338 72 35 5.2 7.8 0.00 0.00 0.00 83 1001.7
20260505150317 72 85 6.1 7.8 0.00 0.00 0.00 83 1001.5
20260505140330 72 138 0.9 4.3 0.00 0.00 0.00 80 1001.0
20260505140306 72 152 1.7 4.3 0.00 0.00 0.00 80 1001.2
20260505130305 68 99 1.7 1.7 0.00 0.00 0.00 88 1000.8
20260505130205 68 15 0.0 1.7 0.00 0.00 0.00 88 1000.9
20260505124830 68 192 1.7 1.7 0.00 0.00 0.00 87 1000.8
20260505124805 68 192 1.7 1.7 0.00 0.00 0.00 87 1000.6
20260505124344 68 163 0.9 3.5 0.00 0.00 0.00 87 1000.9
20260505124332 68 122 0.0 2.6 0.00 0.00 0.00 87 1000.7
20260505124315 68 98 1.7 3.5 0.00 0.00 0.00 87 1000.8
20260505123806 68 178 1.7 3.5 0.00 0.00 0.00 87 1000.8
20260505123329 67 20 1.7 3.5 0.00 0.00 0.00 86 1000.7
20260505123305 67 71 2.6 3.5 0.00 0.00 0.00 87 1000.7
20260505123219 68 129 0.9 3.5 0.00 0.00 0.00 86 1000.6
20260505122806 68 131 1.7 3.5 0.00 0.00 0.00 86 1000.5
20260505122330 68 222 0.9 4.3 0.00 0.00 0.00 85 1000.6
20260505122306 68 157 0.0 4.3 0.00 0.00 0.00 85 1000.5
20260505122112 68 17 0.9 2.6 0.00 0.00 0.00 85 1000.5
20260505122104 68 68 0.9 2.6 0.00 0.00 0.00 85 1000.4
20260505121952 68 110 2.6 4.3 0.00 0.00 0.00 85 1000.4
20260505121936 68 108 1.7 4.3 0.00 0.00 0.00 85 1000.7
20260505120829 68 48 0.9 2.6 0.00 0.00 0.00 84 1000.2
20260505120806 68 88 1.7 2.6 0.00 0.00 0.00 84 1000.2
20260505120726 68 93 1.7 3.5 0.00 0.00 0.00 83 1000.2
20260505120305 68 97 1.7 4.3 0.00 0.00 0.00 83 1000.2
20260505115830 69 113 0.0 7.8 0.00 0.00 0.00 82 999.9
20260505115806 69 163 0.9 7.8 0.00 0.00 0.00 82 999.9
20260505115721 69 194 2.6 7.8 0.00 0.00 0.00 82 999.7
20260505115306 69 239 2.6 7.8 0.00 0.00 0.00 82 999.6
20260505115219 69 236 1.7 7.8 0.00 0.00 0.00 82 999.5
20260505114806 69 276 3.5 7.8 0.00 0.00 0.00 82 999.4
20260505114341 69 226 1.7 8.7 0.00 0.00 0.00 82 999.3
20260505114329 69 261 1.7 8.7 0.00 0.00 0.00 82 999.5
20260505114313 69 226 4.3 8.7 0.00 0.00 0.00 82 999.4
20260505113807 69 231 1.7 8.7 0.00 0.00 0.00 82 999.4
20260505113329 69 284 0.9 8.7 0.00 0.00 0.00 82 999.1
20260505113307 69 203 2.6 8.7 0.00 0.00 0.00 82 999.0
20260505112829 69 239 5.2 8.7 0.00 0.00 0.00 81 999.0
20260505112805 69 252 4.3 8.7 0.00 0.00 0.00 81 999.0
20260505112330 69 268 3.5 10.4 0.00 0.00 0.00 81 998.8
20260505112305 69 200 1.7 10.4 0.00 0.00 0.00 81 999.0
20260505111829 69 263 5.2 10.4 0.00 0.00 0.00 81 999.0
20260505111807 69 246 4.3 10.4 0.00 0.00 0.00 81 998.9
20260505111328 70 257 5.2 11.3 0.00 0.00 0.00 81 998.7
20260505111306 70 247 5.2 11.3 0.00 0.00 0.00 81 998.7
20260505110835 70 239 4.3 13.0 0.00 0.00 0.00 80 998.8
20260505110820 70 240 1.7 13.0 0.00 0.00 0.00 80 998.7
20260505110338 70 248 5.2 13.9 0.00 0.00 0.00 80 998.7
20260505110321 70 256 5.2 13.9 0.00 0.00 0.00 80 998.5
20260505101835 71 249 7.8 16.5 0.00 0.00 0.00 79 998.4
20260505101806 71 228 9.6 16.5 0.00 0.00 0.00 79 998.4
20260505101704 71 201 7.0 16.5 0.00 0.00 0.00 79 998.4
20260505101538 71 206 6.1 16.5 0.00 0.00 0.00 79 998.2
20260505100859 71 210 7.8 16.5 0.00 0.00 0.00 78 998.5
20260505100808 71 244 8.7 16.5 0.00 0.00 0.00 78 998.5
20260505100333 71 213 12.2 16.5 0.00 0.00 0.00 78 998.3
20260505100307 71 233 10.4 16.5 0.00 0.00 0.00 79 998.4
20260505100240 71 214 6.1 18.2 0.00 0.00 0.00 78 998.5
20260505100042 71 238 7.8 18.2 0.00 0.00 0.00 78 998.3
20260505095331 71 245 5.2 18.2 0.00 0.00 0.00 78 998.6
20260505095306 71 249 5.2 18.2 0.00 0.00 0.00 78 998.5
20260505094831 71 242 7.8 16.5 0.00 0.00 0.00 78 998.4
20260505094806 71 240 6.1 16.5 0.00 0.00 0.00 78 998.4
20260505094333 71 195 15.6 16.5 0.00 0.00 0.00 78 998.5
20260505094311 71 237 7.8 16.5 0.00 0.00 0.00 78 998.4
20260505093856 71 225 7.0 16.5 0.00 0.00 0.00 79 998.6
20260505093808 71 275 3.5 16.5 0.00 0.00 0.00 79 998.3
20260505093714 71 251 6.1 15.6 0.00 0.00 0.00 79 998.3
20260505093306 71 222 7.8 15.6 0.00 0.00 0.00 79 998.4
20260505092831 71 215 7.0 13.9 0.00 0.00 0.00 79 998.3
20260505092806 71 236 7.8 13.9 0.00 0.00 0.00 79 998.4
20260505092332 71 252 7.0 13.9 0.00 0.00 0.00 79 998.2
20260505092306 71 207 7.0 13.9 0.00 0.00 0.00 79 998.4
20260505092218 71 240 7.0 13.0 0.00 0.00 0.00 79 998.5
20260505091807 71 215 8.7 13.9 0.00 0.00 0.00 79 998.4
20260505091653 71 247 6.1 13.9 0.00 0.00 0.00 79 998.5
20260505091532 71 253 7.0 13.9 0.00 0.00 0.00 79 998.4
20260505090854 71 212 8.7 16.5 0.00 0.00 0.00 78 998.6
20260505090806 71 197 13.0 16.5 0.00 0.00 0.00 78 998.6
20260505090332 71 234 8.7 16.5 0.00 0.00 0.00 78 998.6
20260505090306 71 250 7.8 16.5 0.00 0.00 0.00 78 998.7
20260505090154 71 219 2.6 15.6 0.00 0.00 0.00 78 998.6
20260505090032 71 222 11.3 15.6 0.00 0.00 0.00 78 998.7
20260505085331 71 226 6.1 16.5 0.00 0.00 0.00 78 998.8
20260505085306 71 244 8.7 16.5 0.00 0.00 0.00 78 998.6
20260505084832 71 230 7.8 16.5 0.00 0.00 0.00 78 998.7
20260505084806 71 248 5.2 16.5 0.00 0.00 0.00 78 998.5
20260505084727 71 255 8.7 13.9 0.00 0.00 0.00 78 998.6
20260505084305 71 190 4.3 13.9 0.00 0.00 0.00 78 998.6
20260505084140 71 228 7.8 14.8 0.00 0.00 0.00 78 998.9
20260505084128 71 223 12.2 16.5 0.00 0.00 0.00 78 998.8
20260505084011 71 240 10.4 16.5 0.00 0.00 0.00 78 998.7
20260505083954 71 243 6.1 16.5 0.00 0.00 0.00 78 998.7
20260505083500 71 229 9.6 16.5 0.00 0.00 0.00 78 998.7
20260505082806 71 255 8.7 14.8 0.00 0.00 0.00 78 999.0
20260505082728 71 219 10.4 14.8 0.00 0.00 0.00 78 999.1
20260505082305 71 223 6.1 14.8 0.00 0.00 0.00 78 999.0
20260505081833 71 221 6.1 13.0 0.00 0.00 0.00 79 999.0
20260505081808 71 237 5.2 13.0 0.00 0.00 0.00 78 999.1
20260505081332 71 211 2.6 13.0 0.00 0.00 0.00 78 999.1
20260505081308 71 256 7.0 13.0 0.00 0.00 0.00 79 998.9
20260505080832 71 262 1.7 18.2 0.00 0.00 0.00 79 998.9
20260505080810 71 212 7.8 18.2 0.00 0.00 0.00 79 999.1
20260505080800 71 213 5.2 18.2 0.00 0.00 0.00 79 999.0
20260505080601 71 196 5.2 18.2 0.00 0.00 0.00 79 999.1
20260505080115 71 255 9.6 18.2 0.00 0.00 0.00 78 999.1
20260505080054 71 238 7.8 18.2 0.00 0.00 0.00 78 999.4
20260505075948 71 217 8.7 15.6 0.00 0.00 0.00 78 999.3
20260505075926 71 214 3.5 15.6 0.00 0.00 0.00 78 999.3
20260505075505 71 246 5.2 18.2 0.00 0.00 0.00 78 999.0
20260505075446 71 190 3.5 18.2 0.00 0.00 0.00 78 999.1
20260505074334 71 212 10.4 18.2 0.00 0.00 0.00 78 999.1
20260505074306 71 221 11.3 18.2 0.00 0.00 0.00 78 999.3
20260505073834 71 250 7.8 17.4 0.00 0.00 0.00 78 999.4
20260505073807 71 228 7.8 17.4 0.00 0.00 0.00 78 999.3
20260505073724 71 235 7.8 16.5 0.00 0.00 0.00 78 999.4
20260505073715 71 205 13.0 16.5 0.00 0.00 0.00 79 999.7
20260505073532 71 223 6.1 17.4 0.00 0.00 0.00 78 999.3
20260505073512 71 256 12.2 17.4 0.00 0.00 0.00 78 999.4
20260505072332 71 219 13.0 18.2 0.00 0.00 0.00 78 999.6
20260505072308 71 252 7.8 18.2 0.00 0.00 0.00 78 999.6
20260505072237 71 181 10.4 22.6 0.00 0.00 0.00 78 999.5
20260505071807 71 233 11.3 22.6 0.00 0.00 0.00 78 999.7
20260505071736 71 251 9.6 22.6 0.00 0.00 0.00 78 999.7
20260505071305 71 199 7.0 22.6 0.00 0.00 0.00 78 999.7
20260505070848 71 195 10.4 16.5 0.00 0.00 0.00 78 999.9
20260505070832 71 257 9.6 17.4 0.00 0.00 0.00 78 999.8
20260505070811 71 259 10.4 17.4 0.00 0.00 0.00 79 999.7
20260505070336 71 205 10.4 17.4 0.00 0.00 0.00 78 999.8
20260505070319 71 216 9.6 17.4 0.00 0.00 0.00 78 999.8
20260505065805 71 208 7.0 16.5 0.00 0.00 0.00 78 999.9
20260505065726 71 214 7.0 15.6 0.00 0.00 0.00 79 999.9
20260505065306 71 223 6.1 15.6 0.00 0.00 0.00 79 999.8
20260505065212 71 233 3.5 20.0 0.00 0.00 0.00 79 1000.0
20260505065032 71 213 2.6 20.0 0.00 0.00 0.00 79 999.9
20260505064340 71 194 7.0 20.0 0.00 0.00 0.00 78 999.9
20260505064308 71 200 15.6 20.0 0.00 0.00 0.00 78 999.9
20260505063834 71 212 6.1 20.0 0.00 0.00 0.00 78 999.9
20260505063806 71 247 3.5 20.0 0.00 0.00 0.00 78 999.9
20260505063553 71 241 10.4 20.9 0.00 0.00 0.00 78 1000.1
20260505063548 71 218 7.0 20.9 0.00 0.00 0.00 78 1000.2
20260505063440 71 192 8.7 20.0 0.00 0.00 0.00 78 999.8
20260505063424 71 188 7.8 20.0 0.00 0.00 0.00 78 1000.0
20260505063228 71 239 7.0 20.9 0.00 0.00 0.00 78 1000.1
20260505062426 71 213 4.3 20.9 0.00 0.00 0.00 78 1000.2
20260505061838 71 201 9.6 20.9 0.00 0.00 0.00 78 1000.2
20260505061806 71 233 13.9 20.9 0.00 0.00 0.00 78 1000.2
20260505061333 71 205 13.0 21.7 0.00 0.00 0.00 78 1000.1
20260505061306 71 219 13.0 21.7 0.00 0.00 0.00 78 1000.2
20260505060832 71 235 13.9 21.7 0.00 0.00 0.00 77 1000.3
20260505060807 71 205 19.1 21.7 0.00 0.00 0.00 78 1000.3
20260505060332 71 228 11.3 20.0 0.00 0.00 0.00 77 1000.5
20260505060308 71 218 7.0 20.0 0.00 0.00 0.00 77 1000.5
20260505060253 71 241 9.6 20.0 0.00 0.00 0.00 77 1000.6
20260505060108 71 216 9.6 20.0 0.00 0.00 0.00 77 1000.4
20260505055333 71 196 7.8 18.2 0.00 0.00 0.00 78 1000.6
20260505055307 71 221 13.0 18.2 0.00 0.00 0.00 78 1000.5
20260505054832 71 211 8.7 18.2 0.00 0.00 0.00 77 1000.5
20260505054806 71 174 8.7 18.2 0.00 0.00 0.00 77 1000.3
20260505054332 71 206 11.3 18.2 0.00 0.00 0.00 77 1000.6
20260505054306 71 197 13.0 18.2 0.00 0.00 0.00 77 1000.5
20260505054213 71 239 6.1 19.1 0.00 0.00 0.00 77 1000.4
20260505053806 71 225 12.2 19.1 0.00 0.00 0.00 77 1000.5
20260505053333 71 225 2.6 20.0 0.00 0.00 0.00 77 1000.6
20260505053305 71 190 3.5 20.0 0.00 0.00 0.00 77 1000.6
20260505052834 71 216 7.8 20.0 0.00 0.00 0.00 77 1000.6
20260505052806 71 224 9.6 20.0 0.00 0.00 0.00 77 1000.6
20260505052716 71 222 12.2 20.0 0.00 0.00 0.00 77 1000.7
20260505052306 71 198 7.0 20.0 0.00 0.00 0.00 77 1000.5
20260505051832 71 218 12.2 20.0 0.00 0.00 0.00 77 1000.6
20260505051806 71 188 3.5 20.0 0.00 0.00 0.00 77 1000.7
20260505051333 71 227 11.3 20.0 0.00 0.00 0.00 77 1000.7
20260505051306 71 197 8.7 20.0 0.00 0.00 0.00 77 1000.7
20260505050833 71 192 8.7 16.5 0.00 0.00 0.00 77 1000.9
20260505050808 71 226 9.6 16.5 0.00 0.00 0.00 77 1000.8
20260505050727 71 202 7.0 15.6 0.00 0.00 0.00 77 1000.8
20260505050322 71 199 8.7 15.6 0.00 0.00 0.00 77 1000.7
20260505041308 72 206 7.8 19.1 0.00 0.00 0.00 75 1001.0
20260505040808 72 192 7.8 21.7 0.00 0.00 0.00 74 1000.9
20260505040307 72 213 13.9 21.7 0.00 0.00 0.00 74 1001.2
20260505035837 72 190 3.5 20.0 0.00 0.00 0.00 74 1001.4